Change the Weather History Date:

Wednesday, April 24, 2013

  Actual Average Record
Temperature  
Mean Temperature 58 °F -  
Max Temperature 73 °F 74 °F 80 °F (2002)
Min Temperature 44 °F 42 °F 35 °F (2012)
Degree Days  
Heating Degree Days 6    
Growing Degree Days 8 (Base 50)    
Moisture  
Dew Point 42 °F    
Average Humidity 59    
Maximum Humidity 82    
Minimum Humidity 23    
Precipitation  
Precipitation 0.00 in - - ()
Sea Level Pressure  
Sea Level Pressure 30.19 in    
Wind  
Wind Speed 6 mph ()    
Max Wind Speed 25 mph    
Max Gust Speed -    
Visibility 3.3 miles    
Events Rain , Thunderstorm    
Averages and records for this station are not official NWS values.
T = Trace of Precipitation, MM = Missing Value Source: Averaged Metar Reports

Daily Weather History Graph

Daily Weather History Graph

Search for Another Location

Airport or City:

Trip Planner

Search our weather history database for the weather conditions in past years. The results will help you decide how hot, cold, wet, or windy it might be!

Date:

Astronomy

Apr. 24, 2013 Rise Set
Actual Time 7:14 AM CDT 7:58 PM CDT
Civil Twilight 6:51 AM CDT 8:21 PM CDT
Nautical Twilight 6:24 AM CDT 8:48 PM CDT
Astronomical Twilight 5:57 AM CDT 9:15 PM CDT
Moon 7:07 PM CDT (4/24) 6:10 AM CDT (4/24)
Length of Visible Light 13h 30m
Length of Day
12h 44m
Waxing Gibbous, 98% of the Moon is Illuminated
Apr 24
Waxing Gibbous
Apr 25
Full
May 2
Last Quarter
May 9
New
May 17
First Quarter

Hourly Weather History & Observations

Time (CDT) Temp. Windchill Dew Point Humidity Pressure Visibility Wind Dir Wind Speed Gust Speed Precip Events Conditions
12:46 AM 59.0 °F - 41.0 °F 51% 29.73 in 4.0 mi NE 5.8 mph - N/A   Mostly Cloudy
1:42 AM 59.0 °F - 41.0 °F 51% 30.39 in 4.0 mi NE 8.1 mph - N/A   Mostly Cloudy
2:41 AM 57.2 °F - 42.8 °F 59% 30.41 in 3.0 mi North 9.2 mph - N/A   Mostly Cloudy
3:44 AM 53.6 °F - 41.0 °F 62% 29.75 in 3.0 mi Calm Calm - N/A   Mostly Cloudy
4:42 AM 53.6 °F - 44.6 °F 72% 30.36 in 3.0 mi South 8.1 mph - N/A   Mostly Cloudy
5:41 AM 50.0 °F - 44.6 °F 82% 30.37 in 3.0 mi SE 6.9 mph - N/A   Mostly Cloudy
6:43 AM 46.4 °F 43.5 °F 41.0 °F 81% 29.84 in 3.0 mi East 5.8 mph - N/A   Mostly Cloudy
7:28 AM 44.6 °F - 39.2 °F 81% 30.40 in 2.0 mi Calm Calm - N/A   Scattered Clouds
7:44 AM 44.6 °F 43.1 °F 39.2 °F 81% 30.40 in 2.0 mi NE 3.5 mph - N/A   Scattered Clouds
8:47 AM 53.6 °F - 42.8 °F 67% 30.42 in 2.0 mi North 4.6 mph - N/A   Mostly Cloudy
9:44 AM 59.0 °F - 46.4 °F 63% 29.81 in 2.0 mi West 3.5 mph - N/A   Mostly Cloudy
10:46 AM 62.6 °F - 44.6 °F 52% 30.44 in 2.0 mi WSW 4.6 mph - N/A   Overcast
11:49 AM 68.0 °F - 41.0 °F 37% 30.42 in 3.0 mi NW 6.9 mph - N/A   Haze
12:47 PM 71.6 °F - 35.6 °F 27% 29.71 in 4.0 mi East 3.5 mph - N/A   Overcast
1:48 PM 71.6 °F - 33.8 °F 25% 30.36 in 4.0 mi Calm Calm - N/A   Overcast
2:44 PM 73.4 °F - 33.8 °F 23% 30.32 in 5.0 mi WSW 4.6 mph - N/A   Overcast
3:42 PM 69.8 °F - 35.6 °F 28% 29.69 in 2.0 mi ESE 25.3 mph - N/A Rain , Thunderstorm Thunderstorms and Rain
4:52 PM 57.2 °F - 46.4 °F 67% 30.35 in 3.0 mi East 17.3 mph - N/A Rain , Thunderstorm Light Thunderstorms and Rain
5:49 PM 57.2 °F - 46.4 °F 67% 30.32 in 3.0 mi NE 20.7 mph - N/A   Haze
6:50 PM 60.8 °F - 44.6 °F 55% 29.83 in 4.0 mi Calm Calm - N/A   Overcast
7:47 PM 59.0 °F - 46.4 °F 63% 30.36 in 4.0 mi North 6.9 mph - N/A   Overcast
8:40 PM 57.2 °F - 48.2 °F 72% 30.38 in 4.0 mi NE 11.5 mph - N/A   Overcast
9:45 PM 55.4 °F - 46.4 °F 72% 29.89 in 4.0 mi ENE 12.7 mph - N/A   Mostly Cloudy
10:45 PM 55.4 °F - 46.4 °F 72% 30.44 in 5.0 mi ENE 9.2 mph - N/A   Scattered Clouds
11:45 PM 53.6 °F - 42.8 °F 67% 30.45 in 5.0 mi ENE 6.9 mph - N/A   Scattered Clouds